Regional Weather Roundup
Issued by NWS Grand Forks, ND

Home | Current Version | Previous Version | Graphics & Text | Print | Product List | Glossary On
Versions: 1 2 3 4 5 6 7 8 9 10 11 12 13 14 15 16 17 18 19 20 21 22 23 24 25 26 27 28 29 30 31 32 33 34 35 36 37 38 39 40 41 42 43 44 45 46 47 48 49 50
000
ASUS43 KFGF 231810
RWRFGF
PRAIRIE TO PINES  WEATHER ROUNDUP
NATIONAL WEATHER SERVICE EASTERN NORTH DAKOTA/GRAND FORKS ND
100 PM CDT TUE AUG 23 2016

 **SATELLITE DATA USED TO AUGMENT SKY COVER AT AUTOMATED STATIONS**
 *****  WEATHER ACROSS EASTERN NORTH DAKOTA  *****

CITY           SKY/WX    TMP DP  RH WIND       PRES   REMARKS
GRAND FORKS    CLOUDY    78  66  66 SW7       29.61F
6HR MIN TEMP:  69; 6HR MAX TEMP:  80;

GRAND FRKS AFB CLOUDY    77  65  65 SW13      29.64R
GRAND FRKS NWS   N/A     77 N/A N/A SE15        N/A
DEVILS LAKE    PTSUNNY   77  68  73 W9        29.65R
6HR MIN TEMP:  68; 6HR MAX TEMP:  77;

FARGO          SUNNY     83  65  54 SE20G30   29.68F
WAHPETON ARPT  CLEAR     82  63  51 S16       29.74S
$$

 ***** WEATHER ACROSS CENTRAL AND WESTERN NORTH DAKOTA  *****

CITY           SKY/WX    TMP DP  RH WIND       PRES   REMARKS
BISMARCK       MOSUNNY   81  47  30 NW24G33   29.73R
6HR MIN TEMP:  55; 6HR MAX TEMP:  81;

MINOT          CLOUDY    78  38  23 NW25G35   29.74R
6HR MIN TEMP:  59; 6HR MAX TEMP:  79; 6HR PCP: TRACE;

JAMESTOWN      PTSUNNY   81  68  64 S16       29.66R
6HR MIN TEMP:  66; 6HR MAX TEMP:  81; 6HR PCP: TRACE;

MINOT AFB      CLOUDY    76  39  25 NW28G35   29.73R
GARRISON       NOT AVBL
WILLISTON      CLOUDY    77  36  22 W17G26    29.85S
6HR MIN TEMP:  65; 6HR MAX TEMP:  78;

DICKINSON      SUNNY     77  29  17 NW24G32   29.85R
6HR MIN TEMP:  56; 6HR MAX TEMP:  77;

HETTINGER      SUNNY     79  34  19 NW30G39   29.86R
6HR MIN TEMP:  56; 6HR MAX TEMP:  79;

$$

 *****  OTHER AIRPORT OBSERVATIONS IN OUR AREA  *****

CITY           SKY/WX    TMP DP  RH WIND       PRES   REMARKS
WALHALLA       NOT AVBL
GRAFTON AIRPOR FAIR      79  66  65 SW12G18   29.65R
VALLEY CITY AR FAIR      81  68  65 S18G29    29.69R
CANDO          NOT AVBL
CAVALIER APRT  FAIR      81  68  65 SW8       29.61F
GWINNER        FAIR      82  68  61 S14G20    29.70F
SHEYENNE NWR     N/A     86  67  52 S14       29.95
ROLLA          CLOUDY    68  66  94 NW10      29.70R
 ***** THE ABOVE OBSERVATIONS ARE NON NWS ARE NOT QUALITY
       CONTROLLED AND MAY MIS-REPORT RAIN FOR SNOW...
$$

  *****  WEATHER ACROSS NORTHERN MINNESOTA  *****

CITY           SKY/WX    TMP DP  RH WIND       PRES   REMARKS
FLAG ISLAND    MOSUNNY   75  66  73 SE6       29.72R
WARROAD        SUNNY     81  70  69 SE10      29.70R
ROSEAU         SUNNY     82  68  61 SE16      29.67F
HALLOCK        PTSUNNY   81  66  61 SW12      29.66R
THF RVR FALLS  PTSUNNY   79  65  62 S16G26    29.67F
6HR MIN TEMP:  69; 6HR MAX TEMP:  81;

BAUDETTE       CLOUDY    80  66  62 SE15      29.73F
6HR MIN TEMP:  65; 6HR MAX TEMP:  80;

WASKISH        MOSUNNY   77  66  69 SE8       29.75F
CROOKSTON      MOSUNNY   81  66  61 S25G31    29.65R
STEPHEN NDAWN    N/A     81  66  61 S9          N/A
GREENBUSH NDAW   N/A     82  64  54 S14         N/A
$$
  *****  WEATHER ACROSS CENTRAL AND WEST MINNESOTA  *****

CITY           SKY/WX    TMP DP  RH WIND       PRES   REMARKS
FOSSTON        SUNNY     81  64  57 S21G26    29.72S
BEMIDJI        MOSUNNY   80  66  63 S14G21    29.77S
PARK RAPIDS    SUNNY     83  65  54 S16       29.80F
6HR MIN TEMP:  65; 6HR MAX TEMP:  83;

ELBOW LAKE     FAIR      81  69  67 S16       29.79S
WADENA         SUNNY     81  66  61 S12G21    29.80F
DETROIT LAKES  SUNNY     81  64  57 S18       29.78F
MOORHEAD       SUNNY     82  64  54 S18G24    29.71F
FERGUS FALLS     N/A     81  66  61 S17       29.77S
MORRIS MN      SUNNY     82  66  57 S16G26    29.79R
STAPLES        NOT AVBL
$$
  *****  WEATHER ELSEWHERE ACROSS MINNESOTA  *****

CITY           SKY/WX    TMP DP  RH WIND       PRES   REMARKS
DULUTH         MOSUNNY   81  65  58 S15G23    29.90F
6HR MIN TEMP:  66; 6HR MAX TEMP:  84;

INTRNTL FALLS  CLOUDY    78  65  63 SE9       29.79F
6HR MIN TEMP:  64; 6HR MAX TEMP:  78;

ELY            CLOUDY    79  64  61 S8        29.87F
CLOQUET        SUNNY     79  63  57 S14       29.90S
WHEATON        SUNNY     84  72  65 S9G20     29.78R
BRAINERD       SUNNY     80  66  62 SE14      29.85S
6HR MIN TEMP:  65; 6HR MAX TEMP:  80;

HIBBING        CLOUDY    78  65  63 SE12G23   29.86S
6HR MIN TEMP:  59; 6HR MAX TEMP:  79;

ALEXANDRIA     SUNNY     81  67  62 S17       29.84S
6HR MIN TEMP:  67; 6HR MAX TEMP:  81;

SAINT CLOUD    SUNNY     79  68  69 S16       29.88S
6HR MIN TEMP:  66; 6HR MAX TEMP:  79;

MINNEAPOLIS    CLOUDY    82  67  60 S17       29.91F
6HR MIN TEMP:  67; 6HR MAX TEMP:  82;

$$

  *****  WEATHER ACROSS SOUTH DAKOTA  *****

CITY           SKY/WX    TMP DP  RH WIND       PRES   REMARKS
SIOUX FALLS    CLOUDY    72  69  90 S16       29.85S
6HR MIN TEMP:  68; 6HR MAX TEMP:  75; 6HR PCP: TRACE;

BROOKINGS      CLOUDY    76  67  73 S16G23    29.83R
WATERTOWN      SUNNY     80  67  64 S16G26    29.79F
6HR MIN TEMP:  66; 6HR MAX TEMP:  81;

HURON          SUNNY     82  64  54 S24G38    29.73F
6HR MIN TEMP:  66; 6HR MAX TEMP:  83;

SISSETON         N/A     86  66  51 S17G29    29.73R
ABERDEEN       SUNNY     86  64  47 S22G32    29.68S
6HR MIN TEMP:  68; 6HR MAX TEMP:  86;

MITCHELL       SUNNY     82  65  56 S17G25    29.78S
PIERRE         SUNNY     81  52  36 NW16      29.72R
6HR MIN TEMP:  71; 6HR MAX TEMP:  84;

MOBRIDGE       MOSUNNY   81  63  54 N21       29.69R
RAPID CITY     SUNNY     79  33  19 N30G40    29.92R
6HR MIN TEMP:  63; 6HR MAX TEMP:  79;

$$

  *****  SOME WEATHER IN NEARBY STATES *****

CITY           SKY/WX    TMP DP  RH WIND       PRES   REMARKS
GLASGOW MT     SUNNY     71  43  36 W26G44    29.89S
6HR MIN TEMP:  50; 6HR MAX TEMP:  71;

GREAT FALLS MT SUNNY     70  31  23 W15G24    30.03R
6HR MIN TEMP:  49; 6HR MAX TEMP:  71;

CHEYENNE WY    CLOUDY    77  20  12 NW20G31   30.10R
6HR MIN TEMP:  63; 6HR MAX TEMP:  78;

SCOTTSBLUFF NE SUNNY     84  34  16 NW20      29.96S
6HR MIN TEMP:  53; 6HR MAX TEMP:  84;

OMAHA NE       CLOUDY    76  70  82 SE17      29.91F
6HR MIN TEMP:  69; 6HR MAX TEMP:  76;

DES MOINES IA  CLOUDY    83  69  62 S21       29.99F
6HR MIN TEMP:  65; 6HR MAX TEMP:  83;

DAVENPORT IA   MOSUNNY   80  65  59 S14       30.12F
6HR MIN TEMP:  63; 6HR MAX TEMP:  80;

CHICAGO IL     PTSUNNY   79  60  52 S14       30.18F
6HR MIN TEMP:  62; 6HR MAX TEMP:  79;

EAU CLAIRE WI  MOSUNNY   82  63  52 S16       29.99F
6HR MIN TEMP:  65; 6HR MAX TEMP:  82;

LA CROSSE WI   CLOUDY    84  72  67 S16       30.03F
6HR MIN TEMP:  68; 6HR MAX TEMP:  84;

$$

  *****  SOME NATIONAL WEATHER *****

CITY           SKY/WX    TMP DP  RH WIND       PRES   REMARKS
LA GUARDIA NY  MOSUNNY   81  49  32 CALM      30.28F
6HR MIN TEMP:  69; 6HR MAX TEMP:  81;

RALEIGH NC     MOSUNNY   86  61  42 E10       30.30F
6HR MIN TEMP:  66; 6HR MAX TEMP:  86;

ATLANTA GA     PTSUNNY   89  66  46 CALM      30.25F HX  91
6HR MIN TEMP:  76; 6HR MAX TEMP:  90;

NEW ORLEANS LA MOSUNNY   93  74  53 N5        30.19F HX 103
6HR MIN TEMP:  80; 6HR MAX TEMP:  94;

OKLAHOMA CITY  CLOUDY    79  74  84 S16       30.06F
6HR MIN TEMP:  74; 6HR MAX TEMP:  79; 6HR PCP:  0.07;

ALBUQUERQUE NM MOSUNNY   75  50  41 SW8       30.24F
6HR MIN TEMP:  58; 6HR MAX TEMP:  75;

SALT LAKE CITY PTSUNNY   83  41  22 S9        30.08S
6HR MIN TEMP:  67; 6HR MAX TEMP:  84;

LOS ANGELES CA SUNNY     73  62  68 VRB7      30.05R
6HR MIN TEMP:  64; 6HR MC1F1C2F2C3F3C4F4C5F5C6F6C7F7C8F8C9F9CaFaCbFbCcFcCd!



USA.gov is the U.S. government's official web portal to all federal, state and local government web resources and services.